GW3800 Weather Reports


time (UTC)temp
F
wind
direction
speed
knots
gust
knots
rain 1hr
in
rain 24hr
in
rain mn
in
humidity
%
barometer
mb
20260508122513 43 222 1.7 2.6 0.00 0.00 0.00 72 1011.4
20260508122010 43 291 1.7 3.5 0.00 0.00 0.00 73 1011.2
20260508121508 43 105 0.9 1.7 0.00 0.00 0.00 74 1011.4
20260508121006 42 286 1.7 1.7 0.00 0.00 0.00 76 1011.3
20260508120503 42 313 0.0 2.6 0.00 0.00 0.00 77 1011.3
20260508120001 41 273 0.9 0.9 0.00 0.00 0.00 79 1011.6
20260508115458 41 217 0.9 3.5 0.00 0.00 0.00 79 1011.5
20260508114955 41 265 0.0 0.9 0.00 0.00 0.00 81 1011.5
20260508114452 40 237 0.0 3.5 0.00 0.00 0.00 83 1011.5
20260508113948 40 59 1.7 1.7 0.00 0.00 0.00 82 1011.5
20260508113446 40 239 0.0 1.7 0.00 0.00 0.00 84 1011.6
20260508112943 40 287 0.0 0.0 0.00 0.00 0.00 83 1011.4
20260508112439 40 287 0.0 0.9 0.00 0.00 0.00 83 1011.5
20260508111936 40 319 0.9 0.9 0.00 0.00 0.00 83 1011.5
20260508111433 40 295 0.9 1.7 0.00 0.00 0.00 83 1011.3
20260508110930 40 275 0.9 0.9 0.00 0.00 0.00 82 1011.3
20260508110428 40 237 0.9 0.9 0.00 0.00 0.00 82 1011.2
20260508105927 40 203 1.7 2.6 0.00 0.00 0.00 81 1011.3
20260508105424 40 233 0.0 0.9 0.00 0.00 0.00 80 1011.1
20260508104921 40 238 0.0 1.7 0.00 0.00 0.00 79 1011.2
20260508104419 40 242 0.0 0.9 0.00 0.00 0.00 79 1011.1
20260508103915 40 260 0.9 0.9 0.00 0.00 0.00 78 1011.2
20260508103412 40 280 0.0 0.0 0.00 0.00 0.00 77 1011.1
20260508102909 40 234 0.9 1.7 0.00 0.00 0.00 76 1011.0
20260508102408 40 231 0.0 0.9 0.00 0.00 0.00 75 1010.9
20260508101905 40 231 0.0 0.0 0.00 0.00 0.00 75 1010.8
20260508101402 40 231 0.9 0.9 0.00 0.00 0.00 75 1011.0
20260508100859 40 231 0.0 0.0 0.00 0.00 0.00 73 1010.9
20260508100358 40 230 0.9 0.9 0.00 0.00 0.00 73 1011.0
20260508095853 40 236 0.0 0.9 0.00 0.00 0.00 72 1010.9
20260508095352 41 254 0.9 0.9 0.00 0.00 0.00 72 1010.9
20260508094848 41 233 0.9 2.6 0.00 0.00 0.00 71 1010.8
20260508094345 40 232 0.9 1.7 0.00 0.00 0.00 71 1010.6
20260508093842 40 248 0.9 1.7 0.00 0.00 0.00 73 1010.7
20260508093339 40 232 0.9 1.7 0.00 0.00 0.00 71 1010.6
20260508092836 39 130 0.9 2.6 0.00 0.00 0.00 71 1010.5
20260508092334 39 232 0.9 0.9 0.00 0.00 0.00 74 1010.5
20260508091832 39 232 0.9 0.9 0.00 0.00 0.00 74 1010.4
20260508091328 39 232 0.0 0.9 0.00 0.00 0.00 73 1010.3
20260508090826 39 232 0.0 0.0 0.00 0.00 0.00 73 1010.2
20260508090325 39 232 0.0 0.0 0.00 0.00 0.00 74 1010.1
20260508085820 39 232 0.0 0.0 0.00 0.00 0.00 74 1010.1
20260508085317 38 232 0.0 0.0 0.00 0.00 0.00 74 1010.4
20260508084814 38 232 0.0 0.0 0.00 0.00 0.00 75 1010.3
20260508084311 38 232 0.0 0.0 0.00 0.00 0.00 78 1010.0
20260508083808 38 232 0.0 0.0 0.00 0.00 0.00 76 1010.0
20260508083306 38 232 0.0 0.0 0.00 0.00 0.00 79 1009.9
20260508082805 37 232 0.0 0.0 0.00 0.00 0.00 76 1009.9
20260508082306 37 232 0.0 0.0 0.00 0.00 0.00 80 1009.8
20260508081800 37 232 0.0 0.0 0.00 0.00 0.00 81 1009.8
20260508081257 37 232 0.0 0.0 0.00 0.00 0.00 78 1009.8
20260508080754 37 232 0.0 0.0 0.00 0.00 0.00 80 1009.8
20260508080252 37 232 0.0 0.0 0.00 0.00 0.00 80 1010.0
20260508075748 37 232 0.0 0.0 0.00 0.00 0.00 82 1009.7
20260508075245 37 232 0.0 0.0 0.00 0.00 0.00 82 1009.8
20260508074743 37 232 0.0 0.0 0.00 0.00 0.00 81 1009.8
20260508074240 37 232 0.0 0.0 0.00 0.00 0.00 81 1009.7
20260508073737 37 232 0.0 0.0 0.00 0.00 0.00 79 1009.5
20260508073235 37 232 0.0 0.0 0.00 0.00 0.00 80 1009.7
20260508072731 37 232 0.0 0.0 0.00 0.00 0.00 79 1009.5
20260508072228 37 232 0.0 0.0 0.00 0.00 0.00 77 1009.6
20260508071725 37 232 0.0 0.0 0.00 0.00 0.00 79 1009.6
20260508071223 37 232 0.0 0.0 0.00 0.00 0.00 78 1009.8
20260508070720 37 232 0.0 0.0 0.00 0.00 0.00 81 1009.6
20260508070219 37 232 0.0 0.0 0.00 0.00 0.00 81 1009.7
20260508065716 37 232 0.0 0.0 0.00 0.00 0.00 81 1009.5
20260508065214 37 232 0.0 0.0 0.00 0.00 0.00 80 1009.6
20260508064711 37 232 0.0 0.0 0.00 0.00 0.00 77 1009.4
20260508064209 37 232 0.0 0.0 0.00 0.00 0.00 76 1009.6
20260508063706 37 232 0.0 0.0 0.00 0.00 0.00 75 1009.6
20260508063204 37 232 0.0 0.0 0.00 0.00 0.00 79 1009.6
20260508062701 37 232 0.0 0.0 0.00 0.00 0.00 81 1009.6
20260508062158 37 232 0.0 0.0 0.00 0.00 0.00 79 1009.6
20260508061655 37 232 0.0 0.0 0.00 0.00 0.00 77 1009.9
20260508061153 36 232 0.0 0.0 0.00 0.00 0.00 75 1009.7
20260508060649 36 232 0.0 0.0 0.00 0.00 0.00 76 1009.8
20260508060147 36 232 0.0 0.0 0.00 0.00 0.00 77 1009.9
20260508055642 36 232 0.0 0.0 0.00 0.00 0.00 77 1009.9
20260508055139 35 232 0.0 0.0 0.00 0.00 0.00 82 1009.8
20260508054635 35 232 0.0 0.0 0.00 0.00 0.00 80 1009.9
20260508054133 35 232 0.0 0.0 0.00 0.00 0.00 80 1009.9
20260508053630 34 232 0.0 0.0 0.00 0.00 0.00 80 1009.9
20260508053128 34 232 0.0 0.0 0.00 0.00 0.00 80 1009.9
20260508052625 34 232 0.0 0.0 0.00 0.00 0.00 78 1010.1
20260508052122 35 232 0.0 0.0 0.00 0.00 0.00 79 1010.2
20260508051618 35 232 0.0 0.0 0.00 0.00 0.00 81 1010.1
20260508051113 35 232 0.0 0.0 0.00 0.00 0.00 78 1010.2
20260508050610 35 232 0.0 0.0 0.00 0.00 0.00 78 1010.1
20260508050108 35 232 0.0 0.0 0.00 0.00 0.00 80 1009.8
20260508045603 36 232 0.0 0.0 0.00 0.00 0.00 80 1010.0
20260508045101 35 232 0.0 0.0 0.00 0.00 0.00 82 1009.9
20260508044558 36 232 0.0 0.0 0.00 0.00 0.00 79 1010.1
20260508044054 36 232 0.0 0.0 0.00 0.00 0.00 76 1010.1
20260508043551 37 232 0.0 0.0 0.00 0.00 0.00 75 1010.0
20260508043049 37 232 0.0 0.9 0.00 0.00 0.00 72 1010.1
20260508042545 36 232 0.0 0.0 0.00 0.00 0.00 69 1009.7
20260508042042 36 232 0.0 0.0 0.00 0.00 0.00 72 1009.8
20260508041538 37 232 0.0 0.0 0.00 0.00 0.00 72 1009.7
20260508041035 37 232 0.0 0.0 0.00 0.00 0.00 68 1009.8
20260508040532 37 232 0.0 0.0 0.00 0.00 0.00 68 1009.5
20260508040030 38 232 0.0 0.0 0.00 0.00 0.00 66 1009.7
20260508035526 37 232 0.0 0.0 0.00 0.00 0.00 67 1009.6
20260508035024 38 232 0.0 0.0 0.00 0.00 0.00 74 1009.6
20260508034521 38 232 0.0 0.0 0.00 0.00 0.00 69 1009.6
20260508034018 39 232 0.0 0.0 0.00 0.00 0.00 65 1009.7
20260508033515 39 232 0.0 0.0 0.00 0.00 0.00 62 1009.7
20260508033013 39 232 0.0 0.0 0.00 0.00 0.00 61 1009.8
20260508032510 40 232 0.0 0.0 0.00 0.00 0.00 61 1009.7
20260508032007 40 232 0.0 0.0 0.00 0.00 0.00 59 1010.0
20260508031505 40 232 0.0 0.0 0.00 0.00 0.00 59 1009.9
20260508030959 41 232 0.0 0.0 0.00 0.00 0.00 58 1009.9
20260508030457 41 232 0.0 0.0 0.00 0.00 0.00 59 1009.9
20260508025954 41 232 0.0 0.0 0.00 0.00 0.00 58 1009.6
20260508025450 41 232 0.0 0.0 0.00 0.00 0.00 60 1009.7
20260508024948 41 232 0.0 0.0 0.00 0.00 0.00 58 1009.8
20260508024443 41 232 0.0 0.0 0.00 0.00 0.00 55 1009.8
20260508023941 41 232 0.0 0.0 0.00 0.00 0.00 60 1009.9
20260508023437 41 232 0.0 0.0 0.00 0.00 0.00 56 1010.1
20260508022935 41 232 0.9 0.9 0.00 0.00 0.00 57 1009.9
20260508022430 41 232 0.0 0.0 0.00 0.00 0.00 56 1009.8
20260508021927 41 235 0.0 0.0 0.00 0.00 0.00 58 1009.9
20260508021423 41 235 0.0 0.0 0.00 0.00 0.00 58 1009.9
20260508020919 41 235 0.0 0.0 0.00 0.00 0.00 58 1009.8
20260508020418 41 235 0.0 0.0 0.00 0.00 0.00 60 1009.8
20260508015914 41 235 0.0 0.0 0.00 0.00 0.00 57 1009.9
20260508015412 41 235 0.0 0.0 0.00 0.00 0.00 57 1009.7
20260508014908 41 235 0.0 0.0 0.00 0.00 0.00 56 1009.8
20260508014406 41 235 0.0 0.0 0.00 0.00 0.00 56 1009.8
20260508013902 41 235 0.0 0.0 0.00 0.00 0.00 55 1009.7
20260508013357 41 235 0.0 0.0 0.00 0.00 0.00 54 1009.6
20260508012855 41 235 0.0 0.0 0.00 0.00 0.00 54 1009.5
20260508012352 41 235 0.0 0.0 0.00 0.00 0.00 55 1009.4
20260508011849 42 235 0.0 0.0 0.00 0.00 0.00 54 1009.4
20260508011347 42 235 0.0 0.0 0.00 0.00 0.00 51 1009.4
20260508010844 42 235 0.0 0.0 0.00 0.00 0.00 51 1009.4
20260508010341 42 235 0.0 0.0 0.00 0.00 0.00 51 1009.3
20260508005839 43 235 0.0 0.0 0.00 0.00 0.00 50 1009.4
20260508005335 44 235 0.0 0.0 0.00 0.00 0.00 50 1009.3
20260508004831 45 235 0.0 0.0 0.00 0.00 0.00 45 1009.1
20260508004328 45 235 0.0 0.9 0.00 0.00 0.00 45 1009.1
20260508003824 46 235 0.9 0.9 0.00 0.00 0.00 42 1009.3
20260508003322 46 240 0.0 0.9 0.00 0.00 0.00 43 1008.9
20260508002819 46 220 0.0 1.7 0.00 0.00 0.00 41 1009.0
20260508002315 46 257 0.0 0.9 0.00 0.00 0.00 43 1009.0
20260508001811 47 261 0.0 0.0 0.00 0.00 0.00 42 1008.8
20260508001307 48 261 0.0 0.9 0.00 0.00 0.00 40 1008.8
20260508000803 48 235 0.0 1.7 0.00 0.00 0.00 38 1008.6
20260508000300 48 261 0.9 3.5 0.00 0.00 0.00 38 1008.6
20260507235757 48 244 0.9 1.7 0.00 0.00 0.00 39 1008.7
20260507235254 49 251 0.9 1.7 0.00 0.00 0.00 38 1008.6
20260507234751 49 286 0.9 1.7 0.00 0.00 0.00 37 1008.7
20260507234248 50 210 1.7 2.6 0.00 0.00 0.00 36 1008.5
20260507233744 50 79 1.7 7.0 0.00 0.00 0.00 36 1008.5
20260507233242 50 236 1.7 5.2 0.00 0.00 0.00 37 1008.4
20260507232739 50 284 0.0 1.7 0.00 0.00 0.00 35 1008.5
20260507232236 50 315 0.0 0.9 0.00 0.00 0.00 36 1008.5
20260507231733 51 338 0.0 7.0 0.00 0.00 0.00 36 1008.2
20260507231230 51 247 0.9 2.6 0.00 0.00 0.00 35 1008.4
20260507230726 51 287 3.5 5.2 0.00 0.00 0.00 35 1008.5
20260507230224 51 287 1.7 5.2 0.00 0.00 0.00 34 1008.4
20260507225723 52 267 0.9 2.6 0.00 0.00 0.00 35 1008.5
20260507225220 52 198 1.7 3.5 0.00 0.00 0.00 36 1008.5
20260507224715 52 286 0.9 2.6 0.00 0.00 0.00 35 1008.4
20260507224212 52 182 2.6 7.8 0.00 0.00 0.00 33 1008.1
20260507223708 52 291 1.7 1.7 0.00 0.00 0.00 36 1008.2
20260507223206 52 262 1.7 5.2 0.00 0.00 0.00 34 1008.2
20260507222702 53 152 1.7 3.5 0.00 0.00 0.00 36 1008.2
20260507222159 53 251 0.9 3.5 0.00 0.00 0.00 34 1008.3
20260507221655 53 303 0.9 3.5 0.00 0.00 0.00 36 1008.5
20260507221151 53 255 0.9 2.6 0.00 0.00 0.00 36 1008.2
20260507220649 53 275 0.9 3.5 0.00 0.00 0.00 37 1008.4
20260507220147 53 274 0.9 6.1 0.00 0.00 0.00 35 1008.6
20260507215642 53 298 2.6 6.1 0.00 0.00 0.00 36 1008.5
20260507215140 53 185 2.6 3.5 0.00 0.00 0.00 34 1008.5
20260507214637 54 69 2.6 5.2 0.00 0.00 0.00 36 1008.5
20260507214134 54 79 1.7 3.5 0.00 0.00 0.00 38 1008.5
20260507213630 53 314 0.9 1.7 0.00 0.00 0.00 40 1008.4
20260507213127 53 243 0.0 2.6 0.00 0.00 0.00 40 1008.3
20260507212623 54 284 1.7 3.5 0.00 0.00 0.00 36 1008.6
20260507212120 55 290 1.7 1.7 0.00 0.00 0.00 37 1008.5
20260507211617 56 311 0.9 3.5 0.00 0.00 0.00 36 1008.5
20260507211112 55 272 0.9 5.2 0.00 0.00 0.00 40 1008.4
20260507210610 54 236 1.7 2.6 0.00 0.00 0.00 39 1008.4
20260507210107 54 299 0.9 3.5 0.00 0.00 0.00 41 1008.4
20260507205603 53 346 0.9 2.6 0.00 0.00 0.00 38 1008.3
20260507205100 53 235 2.6 3.5 0.00 0.00 0.00 42 1008.3
20260507204556 53 272 0.9 2.6 0.00 0.00 0.00 39 1008.5
20260507204054 53 32 1.7 2.6 0.00 0.00 0.00 39 1008.4
20260507203551 53 287 0.9 2.6 0.00 0.00 0.00 37 1008.5
20260507203049 53 280 1.7 7.0 0.00 0.00 0.00 38 1008.5
20260507202544 54 322 1.7 3.5 0.00 0.00 0.00 37 1008.4
20260507202040 56 281 0.9 5.2 0.00 0.00 0.00 37 1008.6
20260507201536 55 226 1.7 2.6 0.00 0.00 0.00 38 1008.4
20260507201033 55 280 1.7 3.5 0.00 0.00 0.00 36 1008.6
20260507200528 55 228 4.3 7.0 0.00 0.00 0.00 38 1008.6
20260507200025 53 260 0.0 3.5 0.00 0.00 0.00 40 1008.7
20260507195522 53 291 1.7 3.5 0.00 0.00 0.00 42 1008.7
20260507195020 53 171 2.6 5.2 0.00 0.00 0.00 40 1008.7
20260507194516 55 201 2.6 2.6 0.00 0.00 0.00 38 1008.8
20260507194012 56 232 1.7 2.6 0.00 0.00 0.00 40 1008.6
20260507193509 55 206 4.3 9.6 0.00 0.00 0.00 37 1008.5
20260507193006 55 121 1.7 3.5 0.00 0.00 0.00 39 1008.8
20260507192502 55 298 2.6 5.2 0.00 0.00 0.00 38 1008.8
20260507191959 54 316 2.6 3.5 0.00 0.00 0.00 38 1009.0
20260507191454 55 297 1.7 6.1 0.00 0.00 0.00 38 1008.9
20260507190951 55 315 3.5 8.7 0.00 0.00 0.00 37 1009.0
20260507190449 55 199 7.8 8.7 0.00 0.00 0.00 38 1008.9
20260507185948 56 257 3.5 7.8 0.00 0.00 0.00 35 1009.3
20260507185445 55 269 0.9 3.5 0.00 0.00 0.00 48 1009.1
20260507184941 54 159 1.7 3.5 0.00 0.00 0.00 38 1009.4
20260507184439 53 293 1.7 5.2 0.00 0.00 0.00 42 1009.3
20260507183937 55 276 4.3 7.0 0.00 0.00 0.00 39 1009.3
20260507183434 55 237 1.7 7.0 0.00 0.00 0.00 42 1009.5
20260507182931 55 192 5.2 6.1 0.00 0.00 0.00 41 1009.3
20260507182427 54 279 2.6 8.7 0.00 0.00 0.00 42 1009.3
20260507181923 55 290 3.5 5.2 0.00 0.00 0.00 39 1009.4
20260507181419 54 305 3.5 7.0 0.00 0.00 0.00 40 1009.7
20260507180916 53 261 3.5 9.6 0.00 0.00 0.00 41 1009.5
20260507180413 54 282 3.5 3.5 0.00 0.00 0.00 42 1009.5
20260507175909 54 264 3.5 5.2 0.00 0.00 0.00 41 1009.4
20260507175405 53 248 2.6 7.8 0.00 0.00 0.00 43 1009.6
20260507174903 52 235 3.5 5.2 0.00 0.00 0.00 43 1009.3
20260507174400 53 230 1.7 1.7 0.00 0.00 0.00 48 1009.6
20260507173858 55 237 1.7 5.2 0.00 0.00 0.00 46 1009.7
20260507173355 55 278 2.6 7.0 0.00 0.00 0.00 43 1009.7
20260507172851 55 277 2.6 5.2 0.00 0.00 0.00 44 1009.5
20260507172348 53 220 4.3 8.7 0.00 0.00 0.00 49 1009.8
20260507171844 53 297 1.7 3.5 0.00 0.00 0.00 45 1009.9
20260507171341 54 296 0.9 3.5 0.00 0.00 0.00 43 1009.6
20260507170838 55 285 1.7 6.1 0.00 0.00 0.00 43 1009.5
20260507170334 54 272 1.7 3.5 0.00 0.00 0.00 49 1009.7
20260507165830 53 286 0.9 6.1 0.00 0.00 0.00 44 1010.0
20260507165326 53 273 2.6 7.8 0.00 0.00 0.00 46 1009.8
20260507164822 54 246 1.7 5.2 0.00 0.00 0.00 45 1009.9
20260507164320 53 294 0.9 7.0 0.00 0.00 0.00 46 1009.9
20260507163817 54 249 1.7 3.5 0.00 0.00 0.00 49 1010.1
20260507163314 53 178 3.5 6.1 0.00 0.00 0.00 46 1009.9
20260507162810 53 227 3.5 6.1 0.00 0.00 0.00 44 1009.7
20260507162307 52 274 1.7 2.6 0.00 0.00 0.00 49 1010.3
20260507161803 53 300 5.2 8.7 0.00 0.00 0.00 45 1010.0
20260507161300 52 223 1.7 6.1 0.00 0.00 0.00 44 1010.2
20260507160756 51 328 1.7 2.6 0.00 0.00 0.00 47 1010.4
20260507160252 53 302 1.7 5.2 0.00 0.00 0.00 50 1010.6
20260507155748 53 338 4.3 5.2 0.00 0.00 0.00 44 1010.4
20260507155244 53 80 2.6 5.2 0.00 0.00 0.00 46 1010.7
20260507154741 54 245 5.2 5.2 0.00 0.00 0.00 47 1010.3
20260507154239 52 295 4.3 6.1 0.00 0.00 0.00 52 1010.5
20260507153735 52 123 1.7 5.2 0.00 0.00 0.00 44 1010.5
20260507153231 53 235 1.7 2.6 0.00 0.00 0.00 44 1010.5
20260507152728 51 185 1.7 3.5 0.00 0.00 0.00 49 1010.6
20260507152225 52 272 2.6 7.0 0.00 0.00 0.00 48 1010.3
20260507151720 51 300 3.5 6.1 0.00 0.00 0.00 47 1010.6
20260507151217 51 284 3.5 3.5 0.00 0.00 0.00 47 1010.6
20260507150714 51 301 1.7 3.5 0.00 0.00 0.00 50 1010.6
20260507150211 51 243 3.5 8.7 0.00 0.00 0.00 48 1010.8
20260507145707 51 143 3.5 6.1 0.00 0.00 0.00 46 1010.7
20260507145204 51 332 1.7 2.6 0.00 0.00 0.00 47 1010.7
20260507144700 50 300 2.6 5.2 0.00 0.00 0.00 48 1010.8
20260507144158 50 285 1.7 6.1 0.00 0.00 0.00 45 1010.9
20260507143655 51 329 1.7 3.5 0.00 0.00 0.00 46 1010.7
20260507143152 50 227 1.7 3.5 0.00 0.00 0.00 52 1010.9
20260507142647 50 234 1.7 2.6 0.00 0.00 0.00 52 1010.8
20260507142144 50 291 4.3 8.7 0.00 0.00 0.00 45 1010.8
20260507141641 50 276 0.9 2.6 0.00 0.00 0.00 53 1010.6
20260507141138 50 166 1.7 3.5 0.00 0.00 0.00 49 1010.8
20260507140634 50 161 2.6 3.5 0.00 0.00 0.00 50 1010.7
20260507140131 49 317 0.9 3.5 0.00 0.00 0.00 50 1010.9
20260507135628 49 232 2.6 3.5 0.00 0.00 0.00 47 1010.8
20260507135126 48 231 2.6 3.5 0.00 0.00 0.00 50 1011.0
20260507134622 48 280 1.7 1.7 0.00 0.00 0.00 49 1010.9
20260507134118 48 260 2.6 6.1 0.00 0.00 0.00 50 1010.9
20260507133614 48 313 0.9 1.7 0.00 0.00 0.00 54 1010.8
20260507133112 48 47 1.7 3.5 0.00 0.00 0.00 51 1010.9
20260507132609 48 295 1.7 1.7 0.00 0.00 0.00 52 1011.0
20260507132105 48 354 0.0 1.7 0.00 0.00 0.00 54 1011.0
20260507131602 47 309 0.9 0.9 0.00 0.00 0.00 53 1011.2
20260507131100 46 303 0.9 5.2 0.00 0.00 0.00 55 1011.1
20260507130556 46 258 0.9 0.9 0.00 0.00 0.00 60 1011.1
20260507130054 46 100 0.9 3.5 0.00 0.00 0.00 57 1011.1
20260507125553 45 296 1.7 1.7 0.00 0.00 0.00 65 1011.1
20260507125050 44 294 0.9 2.6 0.00 0.00 0.00 63 1011.0
20260507124546 44 197 1.7 3.5 0.00 0.00 0.00 64 1011.1
20260507124044 43 222 1.7 6.1 0.00 0.00 0.00 66 1011.0
20260507123542 43 220 0.9 2.6 0.00 0.00 0.00 67 1011.1
20260507123038 42 245 0.9 2.6 0.00 0.00 0.00 68 1010.9